owner,sensor,date,latitude,longitude,vertical_datum,sea_water_practical_salinity,qcFlag 
TCOON,ioos:station:TCOON:079:1,2017-04-01T00:30:00Z,27.8708,-97.5177,0.0,26.8,1111122 
TCOON,ioos:station:TCOON:079:1,2017-04-01T01:30:00Z,27.8708,-97.5177,0.0,26.0,1111122 
TCOON,ioos:station:TCOON:079:1,2017-04-01T02:30:00Z,27.8708,-97.5177,0.0,25.9,1111122 
TCOON,ioos:station:TCOON:079:1,2017-04-01T03:30:00Z,27.8708,-97.5177,0.0,24.3,1111122 
TCOON,ioos:station:TCOON:079:1,2017-04-01T04:30:00Z,27.8708,-97.5177,0.0,29.1,1111122 
TCOON,ioos:station:TCOON:079:1,2017-04-01T05:30:00Z,27.8708,-97.5177,0.0,25.4,1111122 
TCOON,ioos:station:TCOON:079:1,2017-04-01T06:30:00Z,27.8708,-97.5177,0.0,26.4,1111122 
TCOON,ioos:station:TCOON:079:1,2017-04-01T07:30:00Z,27.8708,-97.5177,0.0,25.1,1111122 
TCOON,ioos:station:TCOON:079:1,2017-04-01T08:30:00Z,27.8708,-97.5177,0.0,24.9,1111122 
TCOON,ioos:station:TCOON:079:1,2017-04-01T09:30:00Z,27.8708,-97.5177,0.0,27.1,1111122 
TCOON,ioos:station:TCOON:079:1,2017-04-01T10:30:00Z,27.8708,-97.5177,0.0,25.8,1111122 
TCOON,ioos:station:TCOON:079:1,2017-04-01T11:30:00Z,27.8708,-97.5177,0.0,23.4,1111122 
TCOON,ioos:station:TCOON:079:1,2017-04-01T12:30:00Z,27.8708,-97.5177,0.0,25.3,1111122 
TCOON,ioos:station:TCOON:079:1,2017-04-01T13:30:00Z,27.8708,-97.5177,0.0,24.8,1111122 
TCOON,ioos:station:TCOON:079:1,2017-04-01T14:30:00Z,27.8708,-97.5177,0.0,22.3,1111122 
TCOON,ioos:station:TCOON:079:1,2017-04-01T15:30:00Z,27.8708,-97.5177,0.0,26.3,1111122 
TCOON,ioos:station:TCOON:079:1,2017-04-01T16:30:00Z,27.8708,-97.5177,0.0,26.4,1111122 
TCOON,ioos:station:TCOON:079:1,2017-04-01T17:30:00Z,27.8708,-97.5177,0.0,26.2,1111122 
TCOON,ioos:station:TCOON:079:1,2017-04-01T18:30:00Z,27.8708,-97.5177,0.0,28.1,1111122 
TCOON,ioos:station:TCOON:079:1,2017-04-01T19:30:00Z,27.8708,-97.5177,0.0,25.4,1111122 
TCOON,ioos:station:TCOON:079:1,2017-04-01T20:30:00Z,27.8708,-97.5177,0.0,30.0,1111122 
TCOON,ioos:station:TCOON:079:1,2017-04-01T21:30:00Z,27.8708,-97.5177,0.0,25.2,1111122 
TCOON,ioos:station:TCOON:079:1,2017-04-01T22:30:00Z,27.8708,-97.5177,0.0,26.8,1111122 
TCOON,ioos:station:TCOON:079:1,2017-04-01T23:30:00Z,27.8708,-97.5177,0.0,25.5,1111122 
TCOON,ioos:station:TCOON:079:1,2017-04-02T00:30:00Z,27.8708,-97.5177,0.0,27.8,1111122 
TCOON,ioos:station:TCOON:079:1,2017-04-02T01:30:00Z,27.8708,-97.5177,0.0,29.1,1111122 
TCOON,ioos:station:TCOON:079:1,2017-04-02T02:30:00Z,27.8708,-97.5177,0.0,28.7,1111122 
TCOON,ioos:station:TCOON:079:1,2017-04-02T03:30:00Z,27.8708,-97.5177,0.0,27.3,1111122 
TCOON,ioos:station:TCOON:079:1,2017-04-02T04:30:00Z,27.8708,-97.5177,0.0,26.6,1111122 
TCOON,ioos:station:TCOON:079:1,2017-04-02T05:30:00Z,27.8708,-97.5177,0.0,24.3,1111122 
TCOON,ioos:station:TCOON:079:1,2017-04-02T06:30:00Z,27.8708,-97.5177,0.0,23.4,1111122 
TCOON,ioos:station:TCOON:079:1,2017-04-02T07:30:00Z,27.8708,-97.5177,0.0,22.3,1111122 
TCOON,ioos:station:TCOON:079:1,2017-04-02T08:30:00Z,27.8708,-97.5177,0.0,24.3,1111122 
TCOON,ioos:station:TCOON:079:1,2017-04-02T09:30:00Z,27.8708,-97.5177,0.0,25.1,1111122 
TCOON,ioos:station:TCOON:079:1,2017-04-02T10:30:00Z,27.8708,-97.5177,0.0,22.7,1111122 
TCOON,ioos:station:TCOON:079:1,2017-04-02T11:30:00Z,27.8708,-97.5177,0.0,23.5,1111122 
TCOON,ioos:station:TCOON:079:1,2017-04-02T12:30:00Z,27.8708,-97.5177,0.0,24.6,1111122 
TCOON,ioos:station:TCOON:079:1,2017-04-02T14:30:00Z,27.8708,-97.5177,0.0,25.4,1111122 
TCOON,ioos:station:TCOON:079:1,2017-04-02T15:30:00Z,27.8708,-97.5177,0.0,25.2,1111122 
TCOON,ioos:station:TCOON:079:1,2017-04-02T16:30:00Z,27.8708,-97.5177,0.0,24.4,1111122 
TCOON,ioos:station:TCOON:079:1,2017-04-02T17:30:00Z,27.8708,-97.5177,0.0,26.3,1111122 
TCOON,ioos:station:TCOON:079:1,2017-04-02T18:30:00Z,27.8708,-97.5177,0.0,26.1,1111122 
TCOON,ioos:station:TCOON:079:1,2017-04-02T19:30:00Z,27.8708,-97.5177,0.0,27.8,1111122 
TCOON,ioos:station:TCOON:079:1,2017-04-02T20:30:00Z,27.8708,-97.5177,0.0,26.8,1111122 
TCOON,ioos:station:TCOON:079:1,2017-04-02T21:30:00Z,27.8708,-97.5177,0.0,25.0,1111122 
TCOON,ioos:station:TCOON:079:1,2017-04-02T22:30:00Z,27.8708,-97.5177,0.0,26.3,1111122 
TCOON,ioos:station:TCOON:079:1,2017-04-02T23:30:00Z,27.8708,-97.5177,0.0,26.1,1111122 
TCOON,ioos:station:TCOON:079:1,2017-04-03T00:30:00Z,27.8708,-97.5177,0.0,25.8,1111122 
TCOON,ioos:station:TCOON:079:1,2017-04-03T01:30:00Z,27.8708,-97.5177,0.0,27.3,1111122 
TCOON,ioos:station:TCOON:079:1,2017-04-03T02:30:00Z,27.8708,-97.5177,0.0,24.7,1111122 
TCOON,ioos:station:TCOON:079:1,2017-04-03T03:30:00Z,27.8708,-97.5177,0.0,25.1,1111122 
TCOON,ioos:station:TCOON:079:1,2017-04-03T04:30:00Z,27.8708,-97.5177,0.0,26.5,1111122 
TCOON,ioos:station:TCOON:079:1,2017-04-03T05:30:00Z,27.8708,-97.5177,0.0,25.4,1111122 
TCOON,ioos:station:TCOON:079:1,2017-04-03T06:30:00Z,27.8708,-97.5177,0.0,25.6,1111122 
TCOON,ioos:station:TCOON:079:1,2017-04-03T07:30:00Z,27.8708,-97.5177,0.0,23.5,1111122 
TCOON,ioos:station:TCOON:079:1,2017-04-03T09:30:00Z,27.8708,-97.5177,0.0,25.8,1111122 
TCOON,ioos:station:TCOON:079:1,2017-04-03T10:30:00Z,27.8708,-97.5177,0.0,25.7,1111122 
TCOON,ioos:station:TCOON:079:1,2017-04-03T11:30:00Z,27.8708,-97.5177,0.0,24.8,1111122 
TCOON,ioos:station:TCOON:079:1,2017-04-03T12:30:00Z,27.8708,-97.5177,0.0,23.7,1111122 
TCOON,ioos:station:TCOON:079:1,2017-04-03T13:30:00Z,27.8708,-97.5177,0.0,24.5,1111122 
TCOON,ioos:station:TCOON:079:1,2017-04-03T14:30:00Z,27.8708,-97.5177,0.0,24.3,1111122 
TCOON,ioos:station:TCOON:079:1,2017-04-03T15:30:00Z,27.8708,-97.5177,0.0,24.2,1111122 
TCOON,ioos:station:TCOON:079:1,2017-04-03T16:30:00Z,27.8708,-97.5177,0.0,25.4,1111122 
TCOON,ioos:station:TCOON:079:1,2017-04-03T17:30:00Z,27.8708,-97.5177,0.0,25.8,1111122 
TCOON,ioos:station:TCOON:079:1,2017-04-03T18:30:00Z,27.8708,-97.5177,0.0,26.0,1111122 
TCOON,ioos:station:TCOON:079:1,2017-04-03T19:30:00Z,27.8708,-97.5177,0.0,25.9,1111122 
TCOON,ioos:station:TCOON:079:1,2017-04-03T20:30:00Z,27.8708,-97.5177,0.0,25.4,1111122 
TCOON,ioos:station:TCOON:079:1,2017-04-03T21:30:00Z,27.8708,-97.5177,0.0,26.7,1111122 
TCOON,ioos:station:TCOON:079:1,2017-04-03T22:30:00Z,27.8708,-97.5177,0.0,26.2,1111122 
TCOON,ioos:station:TCOON:079:1,2017-04-04T13:30:00Z,27.8708,-97.5177,0.0,24.1,1111122 
TCOON,ioos:station:TCOON:079:1,2017-04-04T14:30:00Z,27.8708,-97.5177,0.0,24.3,1111122 
TCOON,ioos:station:TCOON:079:1,2017-04-04T15:30:00Z,27.8708,-97.5177,0.0,23.4,1111122 
TCOON,ioos:station:TCOON:079:1,2017-04-04T16:30:00Z,27.8708,-97.5177,0.0,24.3,1111122 
TCOON,ioos:station:TCOON:079:1,2017-04-04T17:30:00Z,27.8708,-97.5177,0.0,22.9,1111122 
TCOON,ioos:station:TCOON:079:1,2017-04-04T18:30:00Z,27.8708,-97.5177,0.0,24.0,1111122 
TCOON,ioos:station:TCOON:079:1,2017-04-04T19:30:00Z,27.8708,-97.5177,0.0,26.4,1111122 
TCOON,ioos:station:TCOON:079:1,2017-04-04T20:30:00Z,27.8708,-97.5177,0.0,25.6,1111122 
TCOON,ioos:station:TCOON:079:1,2017-04-04T21:30:00Z,27.8708,-97.5177,0.0,25.9,1111122 
TCOON,ioos:station:TCOON:079:1,2017-04-04T22:30:00Z,27.8708,-97.5177,0.0,27.7,1111122 
TCOON,ioos:station:TCOON:079:1,2017-04-06T14:30:00Z,27.8708,-97.5177,0.0,21.7,1111122 
TCOON,ioos:station:TCOON:079:1,2017-04-06T15:30:00Z,27.8708,-97.5177,0.0,21.0,1111122 
TCOON,ioos:station:TCOON:079:1,2017-04-06T16:30:00Z,27.8708,-97.5177,0.0,18.5,1111122 
TCOON,ioos:station:TCOON:079:1,2017-04-06T17:30:00Z,27.8708,-97.5177,0.0,17.2,1111122 
TCOON,ioos:station:TCOON:079:1,2017-04-06T18:30:00Z,27.8708,-97.5177,0.0,16.3,1111122 
TCOON,ioos:station:TCOON:079:1,2017-04-06T19:30:00Z,27.8708,-97.5177,0.0,17.6,1111122 
TCOON,ioos:station:TCOON:079:1,2017-04-06T20:30:00Z,27.8708,-97.5177,0.0,18.1,1111122 
TCOON,ioos:station:TCOON:079:1,2017-04-06T21:30:00Z,27.8708,-97.5177,0.0,19.8,1111122 
TCOON,ioos:station:TCOON:079:1,2017-04-06T22:30:00Z,27.8708,-97.5177,0.0,21.3,1111122 
TCOON,ioos:station:TCOON:079:1,2017-04-06T23:30:00Z,27.8708,-97.5177,0.0,22.7,1111122 
TCOON,ioos:station:TCOON:079:1,2017-04-07T00:30:00Z,27.8708,-97.5177,0.0,23.8,1111122 
TCOON,ioos:station:TCOON:079:1,2017-04-07T01:30:00Z,27.8708,-97.5177,0.0,25.5,1111122 
TCOON,ioos:station:TCOON:079:1,2017-04-07T02:30:00Z,27.8708,-97.5177,0.0,23.7,1111122 
TCOON,ioos:station:TCOON:079:1,2017-04-07T03:30:00Z,27.8708,-97.5177,0.0,20.6,1111122 
TCOON,ioos:station:TCOON:079:1,2017-04-07T04:30:00Z,27.8708,-97.5177,0.0,21.0,1111122 
TCOON,ioos:station:TCOON:079:1,2017-04-07T05:30:00Z,27.8708,-97.5177,0.0,19.4,1111122 
TCOON,ioos:station:TCOON:079:1,2017-04-07T06:30:00Z,27.8708,-97.5177,0.0,20.8,1111122 
TCOON,ioos:station:TCOON:079:1,2017-04-07T07:30:00Z,27.8708,-97.5177,0.0,19.4,1111122 
TCOON,ioos:station:TCOON:079:1,2017-04-07T08:30:00Z,27.8708,-97.5177,0.0,20.4,1111122 
TCOON,ioos:station:TCOON:079:1,2017-04-07T09:30:00Z,27.8708,-97.5177,0.0,20.9,1111122 
TCOON,ioos:station:TCOON:079:1,2017-04-07T10:30:00Z,27.8708,-97.5177,0.0,21.2,1111122 
TCOON,ioos:station:TCOON:079:1,2017-04-07T11:30:00Z,27.8708,-97.5177,0.0,21.7,1111122 
TCOON,ioos:station:TCOON:079:1,2017-04-07T13:30:00Z,27.8708,-97.5177,0.0,18.1,1111122 
TCOON,ioos:station:TCOON:079:1,2017-04-07T14:30:00Z,27.8708,-97.5177,0.0,17.6,1111122 
TCOON,ioos:station:TCOON:079:1,2017-04-07T15:30:00Z,27.8708,-97.5177,0.0,18.3,1111122 
TCOON,ioos:station:TCOON:079:1,2017-04-07T16:30:00Z,27.8708,-97.5177,0.0,19.4,1111122 
TCOON,ioos:station:TCOON:079:1,2017-04-07T17:30:00Z,27.8708,-97.5177,0.0,19.5,1111122 
TCOON,ioos:station:TCOON:079:1,2017-04-07T18:30:00Z,27.8708,-97.5177,0.0,19.2,1111122 
TCOON,ioos:station:TCOON:079:1,2017-04-07T19:30:00Z,27.8708,-97.5177,0.0,20.3,1111122 
TCOON,ioos:station:TCOON:079:1,2017-04-07T20:30:00Z,27.8708,-97.5177,0.0,20.8,1111122 
TCOON,ioos:station:TCOON:079:1,2017-04-07T21:30:00Z,27.8708,-97.5177,0.0,23.7,1111122 
TCOON,ioos:station:TCOON:079:1,2017-04-07T22:30:00Z,27.8708,-97.5177,0.0,25.4,1111122 
TCOON,ioos:station:TCOON:079:1,2017-04-07T23:30:00Z,27.8708,-97.5177,0.0,26.4,1111122 
TCOON,ioos:station:TCOON:079:1,2017-04-08T00:30:00Z,27.8708,-97.5177,0.0,26.2,1111122 
TCOON,ioos:station:TCOON:079:1,2017-04-08T01:30:00Z,27.8708,-97.5177,0.0,27.1,1111122 
TCOON,ioos:station:TCOON:079:1,2017-04-08T02:30:00Z,27.8708,-97.5177,0.0,26.2,1111122 
TCOON,ioos:station:TCOON:079:1,2017-04-08T03:30:00Z,27.8708,-97.5177,0.0,25.6,1111122 
TCOON,ioos:station:TCOON:079:1,2017-04-08T04:30:00Z,27.8708,-97.5177,0.0,24.6,1111122 
TCOON,ioos:station:TCOON:079:1,2017-04-08T05:30:00Z,27.8708,-97.5177,0.0,24.5,1111122 
TCOON,ioos:station:TCOON:079:1,2017-04-08T06:30:00Z,27.8708,-97.5177,0.0,23.9,1111122 
TCOON,ioos:station:TCOON:079:1,2017-04-08T07:30:00Z,27.8708,-97.5177,0.0,24.2,1111122 
TCOON,ioos:station:TCOON:079:1,2017-04-08T08:30:00Z,27.8708,-97.5177,0.0,24.6,1111122 
TCOON,ioos:station:TCOON:079:1,2017-04-08T09:30:00Z,27.8708,-97.5177,0.0,24.2,1111122 
TCOON,ioos:station:TCOON:079:1,2017-04-08T10:30:00Z,27.8708,-97.5177,0.0,24.4,1111122 
TCOON,ioos:station:TCOON:079:1,2017-04-08T11:30:00Z,27.8708,-97.5177,0.0,25.7,1111122 
TCOON,ioos:station:TCOON:079:1,2017-04-08T13:30:00Z,27.8708,-97.5177,0.0,24.7,1111122 
TCOON,ioos:station:TCOON:079:1,2017-04-08T14:30:00Z,27.8708,-97.5177,0.0,23.8,1111122 
TCOON,ioos:station:TCOON:079:1,2017-04-08T15:30:00Z,27.8708,-97.5177,0.0,23.9,1111122 
TCOON,ioos:station:TCOON:079:1,2017-04-08T16:30:00Z,27.8708,-97.5177,0.0,25.1,1111122 
TCOON,ioos:station:TCOON:079:1,2017-04-08T17:30:00Z,27.8708,-97.5177,0.0,24.9,1111122 
TCOON,ioos:station:TCOON:079:1,2017-04-08T18:30:00Z,27.8708,-97.5177,0.0,25.5,1111122 
TCOON,ioos:station:TCOON:079:1,2017-04-08T19:30:00Z,27.8708,-97.5177,0.0,26.0,1111122 
TCOON,ioos:station:TCOON:079:1,2017-04-08T20:30:00Z,27.8708,-97.5177,0.0,26.5,1111122 
TCOON,ioos:station:TCOON:079:1,2017-04-08T21:30:00Z,27.8708,-97.5177,0.0,26.8,1111122 
TCOON,ioos:station:TCOON:079:1,2017-04-08T22:30:00Z,27.8708,-97.5177,0.0,27.6,1111122 
TCOON,ioos:station:TCOON:079:1,2017-04-08T23:30:00Z,27.8708,-97.5177,0.0,28.6,1111122 
TCOON,ioos:station:TCOON:079:1,2017-04-09T00:30:00Z,27.8708,-97.5177,0.0,28.4,1111122 
TCOON,ioos:station:TCOON:079:1,2017-04-09T01:30:00Z,27.8708,-97.5177,0.0,27.5,1111122 
TCOON,ioos:station:TCOON:079:1,2017-04-09T02:30:00Z,27.8708,-97.5177,0.0,27.6,1111122 
TCOON,ioos:station:TCOON:079:1,2017-04-09T03:30:00Z,27.8708,-97.5177,0.0,27.3,1111122 
TCOON,ioos:station:TCOON:079:1,2017-04-09T04:30:00Z,27.8708,-97.5177,0.0,27.8,1111122 
TCOON,ioos:station:TCOON:079:1,2017-04-09T05:30:00Z,27.8708,-97.5177,0.0,28.7,1111122 
TCOON,ioos:station:TCOON:079:1,2017-04-09T06:30:00Z,27.8708,-97.5177,0.0,28.1,1111122 
TCOON,ioos:station:TCOON:079:1,2017-04-09T07:30:00Z,27.8708,-97.5177,0.0,27.8,1111122 
TCOON,ioos:station:TCOON:079:1,2017-04-09T08:30:00Z,27.8708,-97.5177,0.0,27.0,1111122 
TCOON,ioos:station:TCOON:079:1,2017-04-09T09:30:00Z,27.8708,-97.5177,0.0,26.6,1111122 
TCOON,ioos:station:TCOON:079:1,2017-04-09T10:30:00Z,27.8708,-97.5177,0.0,26.4,1111122 
TCOON,ioos:station:TCOON:079:1,2017-04-09T21:30:00Z,27.8708,-97.5177,0.0,27.4,1111122 
TCOON,ioos:station:TCOON:079:1,2017-04-09T22:30:00Z,27.8708,-97.5177,0.0,27.5,1111122 
TCOON,ioos:station:TCOON:079:1,2017-04-09T23:30:00Z,27.8708,-97.5177,0.0,27.6,1111122 
TCOON,ioos:station:TCOON:079:1,2017-04-10T00:30:00Z,27.8708,-97.5177,0.0,28.6,1111122 
TCOON,ioos:station:TCOON:079:1,2017-04-10T01:30:00Z,27.8708,-97.5177,0.0,28.6,1111122 
TCOON,ioos:station:TCOON:079:1,2017-04-10T02:30:00Z,27.8708,-97.5177,0.0,28.4,1111122 
TCOON,ioos:station:TCOON:079:1,2017-04-10T03:30:00Z,27.8708,-97.5177,0.0,28.5,1111122 
TCOON,ioos:station:TCOON:079:1,2017-04-10T04:30:00Z,27.8708,-97.5177,0.0,28.1,1111122 
TCOON,ioos:station:TCOON:079:1,2017-04-10T05:30:00Z,27.8708,-97.5177,0.0,27.6,1111122 
TCOON,ioos:station:TCOON:079:1,2017-04-10T06:30:00Z,27.8708,-97.5177,0.0,27.8,1111122 
TCOON,ioos:station:TCOON:079:1,2017-04-10T07:30:00Z,27.8708,-97.5177,0.0,27.8,1111122 
TCOON,ioos:station:TCOON:079:1,2017-04-10T08:30:00Z,27.8708,-97.5177,0.0,27.5,1111122 
TCOON,ioos:station:TCOON:079:1,2017-04-10T09:30:00Z,27.8708,-97.5177,0.0,27.6,1111122 
TCOON,ioos:station:TCOON:079:1,2017-04-10T10:30:00Z,27.8708,-97.5177,0.0,27.8,1111122 
TCOON,ioos:station:TCOON:079:1,2017-04-10T11:30:00Z,27.8708,-97.5177,0.0,28.0,1111122 
TCOON,ioos:station:TCOON:079:1,2017-04-10T12:30:00Z,27.8708,-97.5177,0.0,27.9,1111122 
TCOON,ioos:station:TCOON:079:1,2017-04-10T13:30:00Z,27.8708,-97.5177,0.0,27.9,1111122 
TCOON,ioos:station:TCOON:079:1,2017-04-10T14:30:00Z,27.8708,-97.5177,0.0,28.1,1111122 
TCOON,ioos:station:TCOON:079:1,2017-04-10T15:30:00Z,27.8708,-97.5177,0.0,28.1,1111122 
TCOON,ioos:station:TCOON:079:1,2017-04-10T16:30:00Z,27.8708,-97.5177,0.0,27.8,1111122 
TCOON,ioos:station:TCOON:079:1,2017-04-10T17:30:00Z,27.8708,-97.5177,0.0,27.6,1111122 
TCOON,ioos:station:TCOON:079:1,2017-04-10T18:30:00Z,27.8708,-97.5177,0.0,27.8,1111122 
TCOON,ioos:station:TCOON:079:1,2017-04-10T20:30:00Z,27.8708,-97.5177,0.0,27.6,1111122 
TCOON,ioos:station:TCOON:079:1,2017-04-10T21:30:00Z,27.8708,-97.5177,0.0,27.6,1111122 
TCOON,ioos:station:TCOON:079:1,2017-04-10T22:30:00Z,27.8708,-97.5177,0.0,27.7,1111122 
TCOON,ioos:station:TCOON:079:1,2017-04-10T23:30:00Z,27.8708,-97.5177,0.0,27.8,1111122 
TCOON,ioos:station:TCOON:079:1,2017-04-11T00:30:00Z,27.8708,-97.5177,0.0,28.5,1111122 
TCOON,ioos:station:TCOON:079:1,2017-04-11T01:30:00Z,27.8708,-97.5177,0.0,28.8,1111122 
TCOON,ioos:station:TCOON:079:1,2017-04-11T02:30:00Z,27.8708,-97.5177,0.0,29.0,1111122 
TCOON,ioos:station:TCOON:079:1,2017-04-11T03:30:00Z,27.8708,-97.5177,0.0,28.4,1111122 
TCOON,ioos:station:TCOON:079:1,2017-04-11T04:30:00Z,27.8708,-97.5177,0.0,27.7,1111122 
TCOON,ioos:station:TCOON:079:1,2017-04-11T05:30:00Z,27.8708,-97.5177,0.0,27.7,1111122 
TCOON,ioos:station:TCOON:079:1,2017-04-11T06:30:00Z,27.8708,-97.5177,0.0,27.2,1111122 
TCOON,ioos:station:TCOON:079:1,2017-04-11T07:30:00Z,27.8708,-97.5177,0.0,26.8,1111122 
TCOON,ioos:station:TCOON:079:1,2017-04-11T08:30:00Z,27.8708,-97.5177,0.0,27.0,1111122 
TCOON,ioos:station:TCOON:079:1,2017-04-11T09:30:00Z,27.8708,-97.5177,0.0,27.9,1111122 
TCOON,ioos:station:TCOON:079:1,2017-04-11T10:30:00Z,27.8708,-97.5177,0.0,28.1,1111122 
TCOON,ioos:station:TCOON:079:1,2017-04-11T11:30:00Z,27.8708,-97.5177,0.0,28.2,1111122 
TCOON,ioos:station:TCOON:079:1,2017-04-11T12:30:00Z,27.8708,-97.5177,0.0,28.0,1111122 
TCOON,ioos:station:TCOON:079:1,2017-04-11T13:30:00Z,27.8708,-97.5177,0.0,27.8,1111122 
TCOON,ioos:station:TCOON:079:1,2017-04-11T14:30:00Z,27.8708,-97.5177,0.0,28.7,1111122 
TCOON,ioos:station:TCOON:079:1,2017-04-11T15:30:00Z,27.8708,-97.5177,0.0,28.7,1111122 
TCOON,ioos:station:TCOON:079:1,2017-04-11T16:30:00Z,27.8708,-97.5177,0.0,28.5,1111122 
TCOON,ioos:station:TCOON:079:1,2017-04-11T17:30:00Z,27.8708,-97.5177,0.0,28.6,1111122 
TCOON,ioos:station:TCOON:079:1,2017-04-11T18:30:00Z,27.8708,-97.5177,0.0,28.2,1111122 
TCOON,ioos:station:TCOON:079:1,2017-04-11T19:30:00Z,27.8708,-97.5177,0.0,28.2,1111122 
TCOON,ioos:station:TCOON:079:1,2017-04-11T20:30:00Z,27.8708,-97.5177,0.0,28.4,1111122 
TCOON,ioos:station:TCOON:079:1,2017-04-11T21:30:00Z,27.8708,-97.5177,0.0,28.6,1111122 
TCOON,ioos:station:TCOON:079:1,2017-04-11T22:30:00Z,27.8708,-97.5177,0.0,28.5,1111122 
TCOON,ioos:station:TCOON:079:1,2017-04-11T23:30:00Z,27.8708,-97.5177,0.0,28.4,1111122 
TCOON,ioos:station:TCOON:079:1,2017-04-12T00:30:00Z,27.8708,-97.5177,0.0,28.5,1111122 
TCOON,ioos:station:TCOON:079:1,2017-04-12T01:30:00Z,27.8708,-97.5177,0.0,29.0,1111122 
TCOON,ioos:station:TCOON:079:1,2017-04-12T02:30:00Z,27.8708,-97.5177,0.0,29.4,1111122 
TCOON,ioos:station:TCOON:079:1,2017-04-12T03:30:00Z,27.8708,-97.5177,0.0,29.3,1111122 
TCOON,ioos:station:TCOON:079:1,2017-04-12T04:30:00Z,27.8708,-97.5177,0.0,29.1,1111122 
TCOON,ioos:station:TCOON:079:1,2017-04-12T05:30:00Z,27.8708,-97.5177,0.0,27.5,1111122 
TCOON,ioos:station:TCOON:079:1,2017-04-12T06:30:00Z,27.8708,-97.5177,0.0,26.7,1111122 
TCOON,ioos:station:TCOON:079:1,2017-04-12T07:30:00Z,27.8708,-97.5177,0.0,26.8,1111122 
TCOON,ioos:station:TCOON:079:1,2017-04-12T08:30:00Z,27.8708,-97.5177,0.0,26.3,1111122 
TCOON,ioos:station:TCOON:079:1,2017-04-12T09:30:00Z,27.8708,-97.5177,0.0,25.6,1111122 
TCOON,ioos:station:TCOON:079:1,2017-04-12T10:30:00Z,27.8708,-97.5177,0.0,26.4,1111122 
TCOON,ioos:station:TCOON:079:1,2017-04-12T15:30:00Z,27.8708,-97.5177,0.0,28.8,1111122 
TCOON,ioos:station:TCOON:079:1,2017-04-12T16:30:00Z,27.8708,-97.5177,0.0,28.9,1111122 
TCOON,ioos:station:TCOON:079:1,2017-04-12T17:30:00Z,27.8708,-97.5177,0.0,29.7,1111122 
TCOON,ioos:station:TCOON:079:1,2017-04-12T18:30:00Z,27.8708,-97.5177,0.0,29.7,1111122 
TCOON,ioos:station:TCOON:079:1,2017-04-12T19:30:00Z,27.8708,-97.5177,0.0,29.2,1111122 
TCOON,ioos:station:TCOON:079:1,2017-04-12T20:30:00Z,27.8708,-97.5177,0.0,28.5,1111122 
TCOON,ioos:station:TCOON:079:1,2017-04-12T21:30:00Z,27.8708,-97.5177,0.0,28.7,1111122 
TCOON,ioos:station:TCOON:079:1,2017-04-12T22:30:00Z,27.8708,-97.5177,0.0,29.7,1111122 
TCOON,ioos:station:TCOON:079:1,2017-04-12T23:30:00Z,27.8708,-97.5177,0.0,29.2,1111122 
TCOON,ioos:station:TCOON:079:1,2017-04-13T00:30:00Z,27.8708,-97.5177,0.0,28.9,1111122 
TCOON,ioos:station:TCOON:079:1,2017-04-13T01:30:00Z,27.8708,-97.5177,0.0,28.6,1111122 
TCOON,ioos:station:TCOON:079:1,2017-04-14T14:30:00Z,27.8708,-97.5177,0.0,27.0,1111122 
TCOON,ioos:station:TCOON:079:1,2017-04-14T15:30:00Z,27.8708,-97.5177,0.0,27.1,1111122 
TCOON,ioos:station:TCOON:079:1,2017-04-14T16:30:00Z,27.8708,-97.5177,0.0,27.4,1111122 
TCOON,ioos:station:TCOON:079:1,2017-04-14T17:30:00Z,27.8708,-97.5177,0.0,27.3,1111122 
TCOON,ioos:station:TCOON:079:1,2017-04-14T18:30:00Z,27.8708,-97.5177,0.0,28.7,1111122 
TCOON,ioos:station:TCOON:079:1,2017-04-14T19:30:00Z,27.8708,-97.5177,0.0,28.2,1111122 
TCOON,ioos:station:TCOON:079:1,2017-04-14T21:30:00Z,27.8708,-97.5177,0.0,29.5,1111122 
TCOON,ioos:station:TCOON:079:1,2017-04-14T22:30:00Z,27.8708,-97.5177,0.0,28.8,1111122 
TCOON,ioos:station:TCOON:079:1,2017-04-14T23:30:00Z,27.8708,-97.5177,0.0,29.6,1111122 
TCOON,ioos:station:TCOON:079:1,2017-04-15T00:30:00Z,27.8708,-97.5177,0.0,29.3,1111122 
TCOON,ioos:station:TCOON:079:1,2017-04-15T01:30:00Z,27.8708,-97.5177,0.0,29.2,1111122 
TCOON,ioos:station:TCOON:079:1,2017-04-15T02:30:00Z,27.8708,-97.5177,0.0,29.2,1111122 
TCOON,ioos:station:TCOON:079:1,2017-04-15T03:30:00Z,27.8708,-97.5177,0.0,29.2,1111122 
TCOON,ioos:station:TCOON:079:1,2017-04-15T04:30:00Z,27.8708,-97.5177,0.0,28.9,1111122 
TCOON,ioos:station:TCOON:079:1,2017-04-15T05:30:00Z,27.8708,-97.5177,0.0,28.0,1111122 
TCOON,ioos:station:TCOON:079:1,2017-04-15T06:30:00Z,27.8708,-97.5177,0.0,27.7,1111122 
TCOON,ioos:station:TCOON:079:1,2017-04-15T07:30:00Z,27.8708,-97.5177,0.0,27.8,1111122 
TCOON,ioos:station:TCOON:079:1,2017-04-15T08:30:00Z,27.8708,-97.5177,0.0,27.9,1111122 
TCOON,ioos:station:TCOON:079:1,2017-04-15T09:30:00Z,27.8708,-97.5177,0.0,27.7,1111122 
TCOON,ioos:station:TCOON:079:1,2017-04-15T10:30:00Z,27.8708,-97.5177,0.0,27.8,1111122 
TCOON,ioos:station:TCOON:079:1,2017-04-15T11:30:00Z,27.8708,-97.5177,0.0,27.7,1111122 
TCOON,ioos:station:TCOON:079:1,2017-04-15T13:30:00Z,27.8708,-97.5177,0.0,27.5,1111122 
TCOON,ioos:station:TCOON:079:1,2017-04-15T15:30:00Z,27.8708,-97.5177,0.0,28.1,1111122 
TCOON,ioos:station:TCOON:079:1,2017-04-15T16:30:00Z,27.8708,-97.5177,0.0,28.2,1111122 
TCOON,ioos:station:TCOON:079:1,2017-04-15T17:30:00Z,27.8708,-97.5177,0.0,28.1,1111122 
TCOON,ioos:station:TCOON:079:1,2017-04-15T18:30:00Z,27.8708,-97.5177,0.0,28.9,1111122 
TCOON,ioos:station:TCOON:079:1,2017-04-15T19:30:00Z,27.8708,-97.5177,0.0,29.7,1111122 
TCOON,ioos:station:TCOON:079:1,2017-04-15T20:30:00Z,27.8708,-97.5177,0.0,29.4,1111122 
TCOON,ioos:station:TCOON:079:1,2017-04-15T21:30:00Z,27.8708,-97.5177,0.0,29.5,1111122 
TCOON,ioos:station:TCOON:079:1,2017-04-15T23:30:00Z,27.8708,-97.5177,0.0,29.0,1111122 
TCOON,ioos:station:TCOON:079:1,2017-04-16T00:30:00Z,27.8708,-97.5177,0.0,29.1,1111122 
TCOON,ioos:station:TCOON:079:1,2017-04-16T01:30:00Z,27.8708,-97.5177,0.0,29.2,1111122 
TCOON,ioos:station:TCOON:079:1,2017-04-16T02:30:00Z,27.8708,-97.5177,0.0,29.7,1111122 
TCOON,ioos:station:TCOON:079:1,2017-04-16T03:30:00Z,27.8708,-97.5177,0.0,28.3,1111122 
TCOON,ioos:station:TCOON:079:1,2017-04-16T04:30:00Z,27.8708,-97.5177,0.0,28.5,1111122 
TCOON,ioos:station:TCOON:079:1,2017-04-16T05:30:00Z,27.8708,-97.5177,0.0,28.6,1111122 
TCOON,ioos:station:TCOON:079:1,2017-04-16T06:30:00Z,27.8708,-97.5177,0.0,28.0,1111122 
TCOON,ioos:station:TCOON:079:1,2017-04-16T07:30:00Z,27.8708,-97.5177,0.0,28.2,1111122 
TCOON,ioos:station:TCOON:079:1,2017-04-16T08:30:00Z,27.8708,-97.5177,0.0,28.0,1111122 
TCOON,ioos:station:TCOON:079:1,2017-04-16T09:30:00Z,27.8708,-97.5177,0.0,28.1,1111122 
TCOON,ioos:station:TCOON:079:1,2017-04-16T10:30:00Z,27.8708,-97.5177,0.0,27.2,1111122 
TCOON,ioos:station:TCOON:079:1,2017-04-16T11:30:00Z,27.8708,-97.5177,0.0,28.5,1111122 
TCOON,ioos:station:TCOON:079:1,2017-04-16T12:30:00Z,27.8708,-97.5177,0.0,28.3,1111122 
TCOON,ioos:station:TCOON:079:1,2017-04-16T15:30:00Z,27.8708,-97.5177,0.0,28.5,1111122 
TCOON,ioos:station:TCOON:079:1,2017-04-16T16:30:00Z,27.8708,-97.5177,0.0,28.6,1111122 
TCOON,ioos:station:TCOON:079:1,2017-04-16T17:30:00Z,27.8708,-97.5177,0.0,28.9,1111122 
TCOON,ioos:station:TCOON:079:1,2017-04-16T18:30:00Z,27.8708,-97.5177,0.0,29.3,1111122 
TCOON,ioos:station:TCOON:079:1,2017-04-16T19:30:00Z,27.8708,-97.5177,0.0,29.5,1111122 
TCOON,ioos:station:TCOON:079:1,2017-04-16T20:30:00Z,27.8708,-97.5177,0.0,28.6,1111122 
TCOON,ioos:station:TCOON:079:1,2017-04-16T21:30:00Z,27.8708,-97.5177,0.0,29.7,1111122 
TCOON,ioos:station:TCOON:079:1,2017-04-16T23:30:00Z,27.8708,-97.5177,0.0,29.4,1111122 
TCOON,ioos:station:TCOON:079:1,2017-04-17T00:30:00Z,27.8708,-97.5177,0.0,28.9,1111122 
TCOON,ioos:station:TCOON:079:1,2017-04-17T01:30:00Z,27.8708,-97.5177,0.0,30.0,1111122 
TCOON,ioos:station:TCOON:079:1,2017-04-17T03:30:00Z,27.8708,-97.5177,0.0,29.2,1111122 
TCOON,ioos:station:TCOON:079:1,2017-04-17T04:30:00Z,27.8708,-97.5177,0.0,28.6,1111122 
TCOON,ioos:station:TCOON:079:1,2017-04-17T05:30:00Z,27.8708,-97.5177,0.0,29.6,1111122 